Location: ?????
(32.7281°N, 34.9563°E)
Time: 18:00:59
(UTC+00:00)

Cosmos 1302 Rocket - Pass Details

Date: 29 October 2020
Orbit: 756 x 777 km, 74.0° (Epoch: 29 November)

Event Time Altitude Azimuth Distance (km) Brightness Sun altitude
Rises 15:11:03 0° 200° (SSW) 3,216 7.7 -4.7°
Reaches altitude 10° 15:13:25 10° 202° (SSW) 2,296 7.0 -5.2°
Maximum altitude 15:18:37 73° 287° (WNW) 808 4.4 -6.3°
Drops below altitude 10° 15:23:53 10° 12° (NNE) 2,322 6.3 -7.4°
Sets 15:26:17 0° 15° (NNE) 3,255 7.0 -7.9°
